Year,Month,Day,Hour,Minute,Value (Times are PST for temperature in C)
2015,02,09,00,00,8.40
2015,02,09,00,01,8.40
2015,02,09,00,02,8.40
2015,02,09,00,03,8.40
2015,02,09,00,04,8.40
2015,02,09,00,05,8.40
2015,02,09,00,06,8.40
2015,02,09,00,07,8.40
2015,02,09,00,08,8.40
2015,02,09,00,09,8.40
2015,02,09,00,10,8.40
2015,02,09,00,11,8.40
2015,02,09,00,12,8.40
2015,02,09,00,13,8.40
2015,02,09,00,14,8.40
2015,02,09,00,15,8.40
2015,02,09,00,16,8.40
2015,02,09,00,17,8.40
2015,02,09,00,18,8.40
2015,02,09,00,19,8.40
2015,02,09,00,20,8.40
2015,02,09,00,21,8.40
2015,02,09,00,22,8.40
2015,02,09,00,23,8.40
2015,02,09,00,24,8.40
2015,02,09,00,25,8.40
2015,02,09,00,26,8.40
2015,02,09,00,27,8.40
2015,02,09,00,28,8.40
2015,02,09,00,29,8.40
2015,02,09,00,30,8.40
2015,02,09,00,31,8.40
2015,02,09,00,32,8.40
2015,02,09,00,33,8.40
2015,02,09,00,34,8.40
2015,02,09,00,35,8.40
2015,02,09,00,36,8.40
2015,02,09,00,37,8.40
2015,02,09,00,38,8.40
2015,02,09,00,39,8.40
2015,02,09,00,40,8.40
2015,02,09,00,41,8.40
2015,02,09,00,42,8.40
2015,02,09,00,43,8.40
2015,02,09,00,44,8.40
2015,02,09,00,45,8.40
2015,02,09,00,46,8.40
2015,02,09,00,47,8.40
2015,02,09,00,48,8.40
2015,02,09,00,49,8.40
2015,02,09,00,50,8.40
2015,02,09,00,51,8.40
2015,02,09,00,52,8.40
2015,02,09,00,53,8.40
2015,02,09,00,54,8.40
2015,02,09,00,55,8.40
2015,02,09,00,56,8.40
2015,02,09,00,57,8.40
2015,02,09,00,58,8.40
2015,02,09,00,59,8.40
2015,02,09,01,00,8.40
2015,02,09,01,01,8.40
2015,02,09,01,02,8.40
2015,02,09,01,03,8.40
2015,02,09,01,04,8.40
2015,02,09,01,05,8.40
2015,02,09,01,06,8.40
2015,02,09,01,07,8.40
2015,02,09,01,08,8.40
2015,02,09,01,09,8.40
2015,02,09,01,10,8.40
2015,02,09,01,11,8.40
2015,02,09,01,12,8.40
2015,02,09,01,13,8.30
2015,02,09,01,14,8.30
2015,02,09,01,15,8.30
2015,02,09,01,16,8.30
2015,02,09,01,17,8.30
2015,02,09,01,18,8.30
2015,02,09,01,19,8.30
2015,02,09,01,20,8.30
2015,02,09,01,21,8.30
2015,02,09,01,22,8.30
2015,02,09,01,23,8.30
2015,02,09,01,24,8.30
2015,02,09,01,25,8.30
2015,02,09,01,26,8.30
2015,02,09,01,27,8.30
2015,02,09,01,28,8.30
2015,02,09,01,29,8.30
2015,02,09,01,30,8.30
2015,02,09,01,31,8.30
2015,02,09,01,32,8.30
2015,02,09,01,33,8.30
2015,02,09,01,34,8.30
2015,02,09,01,35,8.30
2015,02,09,01,36,8.30
2015,02,09,01,37,8.30
2015,02,09,01,38,8.30
2015,02,09,01,39,8.30
2015,02,09,01,40,8.30
2015,02,09,01,41,8.30
2015,02,09,01,42,8.30
2015,02,09,01,43,8.30
2015,02,09,01,44,8.30
2015,02,09,01,45,8.20
2015,02,09,01,46,8.20
2015,02,09,01,47,8.20
2015,02,09,01,48,8.20
2015,02,09,01,49,8.20
2015,02,09,01,50,8.20
2015,02,09,01,51,8.20
2015,02,09,01,52,8.20
2015,02,09,01,53,8.20
2015,02,09,01,54,8.20
2015,02,09,01,55,8.20
2015,02,09,01,56,8.20
2015,02,09,01,57,8.20
2015,02,09,01,58,8.20
2015,02,09,01,59,8.20
2015,02,09,02,00,8.20
2015,02,09,02,01,8.20
2015,02,09,02,02,8.20
2015,02,09,02,03,8.20
2015,02,09,02,04,8.20
2015,02,09,02,05,8.20
2015,02,09,02,06,8.20
2015,02,09,02,07,8.10
2015,02,09,02,08,8.10
2015,02,09,02,09,8.10
2015,02,09,02,10,8.10
2015,02,09,02,11,8.10
2015,02,09,02,12,8.10
2015,02,09,02,13,8.10
2015,02,09,02,14,8.10
2015,02,09,02,15,8.10
2015,02,09,02,16,8.10
2015,02,09,02,17,8.10
2015,02,09,02,18,8.10
2015,02,09,02,19,8.10
2015,02,09,02,20,8.10
2015,02,09,02,21,8.10
2015,02,09,02,22,8.10
2015,02,09,02,23,8.10
2015,02,09,02,24,8.10
2015,02,09,02,25,8.10
2015,02,09,02,26,8.10
2015,02,09,02,27,8.10
2015,02,09,02,28,8.10
2015,02,09,02,29,8.10
2015,02,09,02,30,8.10
2015,02,09,02,31,8.10
2015,02,09,02,32,8.10
2015,02,09,02,33,8.10
2015,02,09,02,34,8.10
2015,02,09,02,35,8.10
2015,02,09,02,36,8.10
2015,02,09,02,37,8.10
2015,02,09,02,38,8.10
2015,02,09,02,39,8.10
2015,02,09,02,40,8.10
2015,02,09,02,41,8.10
2015,02,09,02,42,8.10
2015,02,09,02,43,8.10
2015,02,09,02,44,8.10
2015,02,09,02,45,8.10
2015,02,09,02,46,8.10
2015,02,09,02,47,8.10
2015,02,09,02,48,8.10
2015,02,09,02,49,8.10
2015,02,09,02,50,8.10
2015,02,09,02,51,8.10
2015,02,09,02,52,8.10
2015,02,09,02,53,8.10
2015,02,09,02,54,8.10
2015,02,09,02,55,8.10
2015,02,09,02,56,8.10
2015,02,09,02,57,8.10
2015,02,09,02,58,8.10
2015,02,09,02,59,8.10
2015,02,09,03,00,8.10
2015,02,09,03,01,8.10
2015,02,09,03,02,8.10
2015,02,09,03,03,8.10
2015,02,09,03,04,8.10
2015,02,09,03,05,8.10
2015,02,09,03,06,8.10
2015,02,09,03,07,8.10
2015,02,09,03,08,8.10
2015,02,09,03,09,8.10
2015,02,09,03,10,8.10
2015,02,09,03,11,8.10
2015,02,09,03,12,8.10
2015,02,09,03,13,8.10
2015,02,09,03,14,8.00
2015,02,09,03,15,8.10
2015,02,09,03,16,8.10
2015,02,09,03,17,8.10
2015,02,09,03,18,8.10
2015,02,09,03,19,8.10
2015,02,09,03,20,8.10
2015,02,09,03,21,8.10
2015,02,09,03,22,8.10
2015,02,09,03,23,8.10
2015,02,09,03,24,8.10
2015,02,09,03,25,8.10
2015,02,09,03,26,8.10
2015,02,09,03,27,8.10
2015,02,09,03,28,8.10
2015,02,09,03,29,8.10
2015,02,09,03,30,8.10
2015,02,09,03,31,8.10
2015,02,09,03,32,8.10
2015,02,09,03,33,8.10
2015,02,09,03,34,8.10
2015,02,09,03,35,8.10
2015,02,09,03,36,8.10
2015,02,09,03,37,8.10
2015,02,09,03,38,8.10
2015,02,09,03,39,8.10
2015,02,09,03,40,8.10
2015,02,09,03,41,8.10
2015,02,09,03,42,8.10
2015,02,09,03,43,8.10
2015,02,09,03,44,8.10
2015,02,09,03,45,8.10
2015,02,09,03,46,8.10
2015,02,09,03,47,8.10
2015,02,09,03,48,8.10
2015,02,09,03,49,8.10
2015,02,09,03,50,8.10
2015,02,09,03,51,8.10
2015,02,09,03,52,8.10
2015,02,09,03,53,8.10
2015,02,09,03,54,8.10
2015,02,09,03,55,8.10
2015,02,09,03,56,8.10
2015,02,09,03,57,8.10
2015,02,09,03,58,8.10
2015,02,09,03,59,8.10
2015,02,09,04,00,8.10
2015,02,09,04,01,8.10
2015,02,09,04,02,8.10
2015,02,09,04,03,8.10
2015,02,09,04,04,8.10
2015,02,09,04,05,8.10
2015,02,09,04,06,8.10
2015,02,09,04,07,8.10
2015,02,09,04,08,8.10
2015,02,09,04,09,8.10
2015,02,09,04,10,8.10
2015,02,09,04,11,8.10
2015,02,09,04,12,8.10
2015,02,09,04,13,8.10
2015,02,09,04,14,8.10
2015,02,09,04,15,8.10
2015,02,09,04,16,8.10
2015,02,09,04,17,8.10
2015,02,09,04,18,8.10
2015,02,09,04,19,8.10
2015,02,09,04,20,8.10
2015,02,09,04,21,8.20
2015,02,09,04,22,8.10
2015,02,09,04,23,8.10
2015,02,09,04,24,8.10
2015,02,09,04,25,8.10
2015,02,09,04,26,8.20
2015,02,09,04,27,8.10
2015,02,09,04,28,8.20
2015,02,09,04,29,8.20
2015,02,09,04,30,8.20
2015,02,09,04,31,8.20
2015,02,09,04,32,8.20
2015,02,09,04,33,8.20
2015,02,09,04,34,8.20
2015,02,09,04,35,8.20
2015,02,09,04,36,8.20
2015,02,09,04,37,8.20
2015,02,09,04,38,8.20
2015,02,09,04,39,8.20
2015,02,09,04,40,8.20
2015,02,09,04,41,8.20
2015,02,09,04,42,8.20
2015,02,09,04,43,8.30
2015,02,09,04,44,8.20
2015,02,09,04,45,8.30
2015,02,09,04,46,8.20
2015,02,09,04,47,8.20
2015,02,09,04,48,8.20
2015,02,09,04,49,8.20
2015,02,09,04,50,8.20
2015,02,09,04,51,8.30
2015,02,09,04,52,8.30
2015,02,09,04,53,8.30
2015,02,09,04,54,8.30
2015,02,09,04,55,8.30
2015,02,09,04,56,8.30
2015,02,09,04,57,8.30
2015,02,09,04,58,8.30
2015,02,09,04,59,8.30
2015,02,09,05,00,8.30
2015,02,09,05,01,8.30
2015,02,09,05,02,8.30
2015,02,09,05,03,8.30
2015,02,09,05,04,8.30
2015,02,09,05,05,8.30
2015,02,09,05,06,8.30
2015,02,09,05,07,8.30
2015,02,09,05,08,8.30
2015,02,09,05,09,8.30
2015,02,09,05,10,8.30
2015,02,09,05,11,8.30
2015,02,09,05,12,8.30
2015,02,09,05,13,8.30
2015,02,09,05,14,8.40
2015,02,09,05,15,8.40
2015,02,09,05,16,8.40
2015,02,09,05,17,8.40
2015,02,09,05,18,8.40
2015,02,09,05,19,8.40
2015,02,09,05,20,8.40
2015,02,09,05,21,8.40
2015,02,09,05,22,8.40
2015,02,09,05,23,8.40
2015,02,09,05,24,8.40
2015,02,09,05,25,8.40
2015,02,09,05,26,8.40
2015,02,09,05,27,8.40
2015,02,09,05,28,8.40
2015,02,09,05,29,8.40
2015,02,09,05,30,8.40
2015,02,09,05,31,8.40
2015,02,09,05,32,8.40
2015,02,09,05,33,8.40
2015,02,09,05,34,8.40
2015,02,09,05,35,8.40
2015,02,09,05,36,8.40
2015,02,09,05,37,8.40
2015,02,09,05,38,8.40
2015,02,09,05,39,8.40
2015,02,09,05,40,8.40
2015,02,09,05,41,8.40
2015,02,09,05,42,8.40
2015,02,09,05,43,8.40
2015,02,09,05,44,8.40
2015,02,09,05,45,8.40
2015,02,09,05,46,8.40
2015,02,09,05,47,8.40
2015,02,09,05,48,8.40
2015,02,09,05,49,8.40
2015,02,09,05,50,8.40
2015,02,09,05,51,8.40
2015,02,09,05,52,8.40
2015,02,09,05,53,8.40
2015,02,09,05,54,8.40
2015,02,09,05,55,8.40
2015,02,09,05,56,8.40
2015,02,09,05,57,8.40
2015,02,09,05,58,8.40
2015,02,09,05,59,8.40
2015,02,09,06,00,8.40
2015,02,09,06,01,8.40
2015,02,09,06,02,8.40
2015,02,09,06,03,8.40
2015,02,09,06,04,8.50
2015,02,09,06,05,8.40
2015,02,09,06,06,8.50
2015,02,09,06,07,8.50
2015,02,09,06,08,8.50
2015,02,09,06,09,8.50
2015,02,09,06,10,8.50
2015,02,09,06,11,8.50
2015,02,09,06,12,8.50
2015,02,09,06,13,8.50
2015,02,09,06,14,8.50
2015,02,09,06,15,8.50
2015,02,09,06,16,8.50
2015,02,09,06,17,8.50
2015,02,09,06,18,8.50
2015,02,09,06,19,8.50
2015,02,09,06,20,8.50
2015,02,09,06,21,8.50
2015,02,09,06,22,8.50
2015,02,09,06,23,8.50
2015,02,09,06,24,8.50
2015,02,09,06,25,8.50
2015,02,09,06,26,8.50
2015,02,09,06,27,8.50
2015,02,09,06,28,8.50
2015,02,09,06,29,8.50
2015,02,09,06,30,8.50
2015,02,09,06,31,8.50
2015,02,09,06,32,8.50
2015,02,09,06,33,8.50
2015,02,09,06,34,8.50
2015,02,09,06,35,8.50
2015,02,09,06,36,8.50
2015,02,09,06,37,8.50
2015,02,09,06,38,8.50
2015,02,09,06,39,8.50
2015,02,09,06,40,8.50
2015,02,09,06,41,8.50
2015,02,09,06,42,8.50
2015,02,09,06,43,8.50
2015,02,09,06,44,8.50
2015,02,09,06,45,8.50
2015,02,09,06,46,8.50
2015,02,09,06,47,8.50
2015,02,09,06,48,8.50
2015,02,09,06,49,8.50
2015,02,09,06,50,8.50
2015,02,09,06,51,8.50
2015,02,09,06,52,8.50
2015,02,09,06,53,8.50
2015,02,09,06,54,8.50
2015,02,09,06,55,8.50
2015,02,09,06,56,8.50
2015,02,09,06,57,8.50
2015,02,09,06,58,8.50
2015,02,09,06,59,8.50
2015,02,09,07,00,8.50
2015,02,09,07,01,8.50
2015,02,09,07,02,8.50
2015,02,09,07,03,8.50
2015,02,09,07,04,8.50
2015,02,09,07,05,8.50
2015,02,09,07,06,8.50
2015,02,09,07,07,8.50
2015,02,09,07,08,8.50
2015,02,09,07,09,8.50
2015,02,09,07,10,8.50
2015,02,09,07,11,8.50
2015,02,09,07,12,8.50
2015,02,09,07,13,8.50
2015,02,09,07,14,8.50
2015,02,09,07,15,8.50
2015,02,09,07,16,8.50
2015,02,09,07,17,8.50
2015,02,09,07,18,8.50
2015,02,09,07,19,8.50
2015,02,09,07,20,8.50
2015,02,09,07,21,8.50
2015,02,09,07,22,8.50
2015,02,09,07,23,8.50
2015,02,09,07,24,8.50
2015,02,09,07,25,8.50
2015,02,09,07,26,8.50
2015,02,09,07,27,8.50
2015,02,09,07,28,8.50
2015,02,09,07,29,8.50
2015,02,09,07,30,8.50
2015,02,09,07,31,8.50
2015,02,09,07,32,8.50
2015,02,09,07,33,8.50
2015,02,09,07,34,8.50
2015,02,09,07,35,8.50
2015,02,09,07,36,8.50
2015,02,09,07,37,8.50
2015,02,09,07,38,8.50
2015,02,09,07,39,8.50
2015,02,09,07,40,8.50
2015,02,09,07,41,8.50
2015,02,09,07,42,8.50
2015,02,09,07,43,8.50
2015,02,09,07,44,8.50
2015,02,09,07,45,8.50
2015,02,09,07,46,8.50
2015,02,09,07,47,8.50
2015,02,09,07,48,8.50
2015,02,09,07,49,8.50
2015,02,09,07,50,8.50
2015,02,09,07,51,8.50
2015,02,09,07,52,8.50
2015,02,09,07,53,8.50
2015,02,09,07,54,8.50
2015,02,09,07,55,8.50
2015,02,09,07,56,8.50
2015,02,09,07,57,8.50
2015,02,09,07,58,8.50
2015,02,09,07,59,8.50
2015,02,09,08,00,8.50
2015,02,09,08,01,8.50
2015,02,09,08,02,8.50
2015,02,09,08,03,8.50
2015,02,09,08,04,8.50
2015,02,09,08,05,8.50
2015,02,09,08,06,8.50
2015,02,09,08,07,8.50
2015,02,09,08,08,8.50
2015,02,09,08,09,8.50
2015,02,09,08,10,8.50
2015,02,09,08,11,8.50
2015,02,09,08,12,8.50
2015,02,09,08,13,8.50
2015,02,09,08,14,8.50
2015,02,09,08,15,8.50
2015,02,09,08,16,8.50
2015,02,09,08,17,8.50
2015,02,09,08,18,8.50
2015,02,09,08,19,8.50
2015,02,09,08,20,8.50
2015,02,09,08,21,8.50
2015,02,09,08,22,8.50
2015,02,09,08,23,8.50
2015,02,09,08,24,8.50
2015,02,09,08,25,8.50
2015,02,09,08,26,8.50
2015,02,09,08,27,8.50
2015,02,09,08,28,8.50
2015,02,09,08,29,8.50
2015,02,09,08,30,8.50
2015,02,09,08,31,8.50
2015,02,09,08,32,8.50
2015,02,09,08,33,8.50
2015,02,09,08,34,8.50
2015,02,09,08,35,8.50
2015,02,09,08,36,8.50
2015,02,09,08,37,8.50
2015,02,09,08,38,8.60
2015,02,09,08,39,8.50
2015,02,09,08,40,8.60
2015,02,09,08,41,8.60
2015,02,09,08,42,8.60
2015,02,09,08,43,8.60
2015,02,09,08,44,8.60
2015,02,09,08,45,8.60
2015,02,09,08,46,8.60
2015,02,09,08,47,8.60
2015,02,09,08,48,8.50
2015,02,09,08,49,8.50
2015,02,09,08,50,8.50
2015,02,09,08,51,8.50
2015,02,09,08,52,8.50
2015,02,09,08,53,8.50
2015,02,09,08,54,8.50
2015,02,09,08,55,8.50
2015,02,09,08,56,8.50
2015,02,09,08,57,8.50
2015,02,09,08,58,8.40
2015,02,09,08,59,8.40
2015,02,09,09,00,8.40
2015,02,09,09,01,8.40
2015,02,09,09,02,8.40
2015,02,09,09,03,8.40
2015,02,09,09,04,8.40
2015,02,09,09,05,8.40
2015,02,09,09,06,8.40
2015,02,09,09,07,8.40
2015,02,09,09,08,8.40
2015,02,09,09,09,8.40
2015,02,09,09,10,8.40
2015,02,09,09,11,8.40
2015,02,09,09,12,8.40
2015,02,09,09,13,8.40
2015,02,09,09,14,8.40
2015,02,09,09,15,8.30
2015,02,09,09,16,8.30
2015,02,09,09,17,8.30
2015,02,09,09,18,8.30
2015,02,09,09,19,8.30
2015,02,09,09,20,8.30
2015,02,09,09,21,8.30
2015,02,09,09,22,8.30
2015,02,09,09,23,8.30
2015,02,09,09,24,8.30
2015,02,09,09,25,8.30
2015,02,09,09,26,8.30
2015,02,09,09,27,8.30
2015,02,09,09,28,8.30
2015,02,09,09,29,8.30
2015,02,09,09,30,8.30
2015,02,09,09,31,8.30
2015,02,09,09,32,8.30
2015,02,09,09,33,8.30
2015,02,09,09,34,8.30
2015,02,09,09,35,8.30
2015,02,09,09,36,8.40
2015,02,09,09,37,8.40
2015,02,09,09,38,8.40
2015,02,09,09,39,8.40
2015,02,09,09,40,8.40
2015,02,09,09,41,8.40
2015,02,09,09,42,8.40
2015,02,09,09,43,8.40
2015,02,09,09,44,8.40
2015,02,09,09,45,8.40
2015,02,09,09,46,8.40
2015,02,09,09,47,8.40
2015,02,09,09,48,8.40
2015,02,09,09,49,8.40
2015,02,09,09,50,8.40
2015,02,09,09,51,8.40
2015,02,09,09,52,8.40
2015,02,09,09,53,8.40
2015,02,09,09,54,8.40
2015,02,09,09,55,8.40
2015,02,09,09,56,8.40
2015,02,09,09,57,8.40
2015,02,09,09,58,8.40
2015,02,09,09,59,8.40
2015,02,09,10,00,8.40
2015,02,09,10,01,8.40
2015,02,09,10,02,8.40
2015,02,09,10,03,8.40
2015,02,09,10,04,8.40
2015,02,09,10,05,8.40
2015,02,09,10,06,8.40
2015,02,09,10,07,8.40
2015,02,09,10,08,8.40
2015,02,09,10,09,8.40
2015,02,09,10,10,8.40
2015,02,09,10,11,8.40
2015,02,09,10,12,8.40
2015,02,09,10,13,8.40
2015,02,09,10,14,8.40
2015,02,09,10,15,8.40
2015,02,09,10,16,8.40
2015,02,09,10,17,8.40
2015,02,09,10,18,8.40
2015,02,09,10,19,8.40
2015,02,09,10,20,8.40
2015,02,09,10,21,8.40
2015,02,09,10,22,8.40
2015,02,09,10,23,8.40
2015,02,09,10,24,8.40
2015,02,09,10,25,8.40
2015,02,09,10,26,8.40
2015,02,09,10,27,8.50
2015,02,09,10,28,8.50
2015,02,09,10,29,8.50
2015,02,09,10,30,8.50
2015,02,09,10,31,8.50
2015,02,09,10,32,8.50
2015,02,09,10,33,8.50
2015,02,09,10,34,8.50
2015,02,09,10,35,8.50
2015,02,09,10,36,8.50
2015,02,09,10,37,8.50
2015,02,09,10,38,8.50
2015,02,09,10,39,8.50
2015,02,09,10,40,8.40
2015,02,09,10,41,8.40
2015,02,09,10,42,8.40
2015,02,09,10,43,8.40
2015,02,09,10,44,8.40
2015,02,09,10,45,8.40
2015,02,09,10,46,8.40
2015,02,09,10,47,8.40
2015,02,09,10,48,8.50
2015,02,09,10,49,8.40
2015,02,09,10,50,8.50
2015,02,09,10,51,8.50
2015,02,09,10,52,8.50
2015,02,09,10,53,8.50
2015,02,09,10,54,8.50
2015,02,09,10,55,8.50
2015,02,09,10,56,8.60
2015,02,09,10,57,8.60
2015,02,09,10,58,8.60
2015,02,09,10,59,8.60
2015,02,09,11,00,8.60
2015,02,09,11,01,8.60
2015,02,09,11,02,8.60
2015,02,09,11,03,8.60
2015,02,09,11,04,8.60
2015,02,09,11,05,8.60
2015,02,09,11,06,8.60
2015,02,09,11,07,8.60
2015,02,09,11,08,8.70
2015,02,09,11,09,8.70
2015,02,09,11,10,8.70
2015,02,09,11,11,8.70
2015,02,09,11,12,8.70
2015,02,09,11,13,8.70
2015,02,09,11,14,8.70
2015,02,09,11,15,8.70
2015,02,09,11,16,8.70
2015,02,09,11,17,8.70
2015,02,09,11,18,8.70
2015,02,09,11,19,8.70
2015,02,09,11,21,8.70
2015,02,09,11,22,8.70
2015,02,09,11,23,8.70
2015,02,09,11,24,8.70
